Find INTELSAT 515

NORAD ID: 19772 Int'l Des: 1989-006 Owner: INTEL Country: I-INT operational
HEOCIRCULAR

当前视图

正在加载3D地球...

关于 INTELSAT 515

正在加载描述...

即将过境

Passes for default location (London). Set your location on the main map for personalized predictions.

高度历史

Loading altitude history...

两行轨道根数

1 19772U 89006A 26145.83177834 -.00000226 00000-0 00000-0 0 9999
2 19772 14.9037 354.3622 0021209 116.2386 245.0234 0.99105820124403
Epoch: May 25, 2026 • Age: 26 hours

当前状态

高度 36108.2 km
速度 3.06 km/s
星下点 7.53°N, 167.1°E
发射日期 Jan 27, 1989
运行时间 37.3 years
类型 communications

技术详情

分类 Payload
质量 1054.00 kg
干质量 884.00 kg
总质量 1981.00 kg
长度 6.40 m
直径 2.00 m
跨度 15.90 m
形状 Box + 2 Pan
制造商 FORDA
平台类型 FS INTELSAT 5
阶段状态 Unknown Active Status
所有者/国家 INTEL/I-INT

Most Searched